BEIDOU-2 IGSO-1 (C06)

Last updated on Mon Jun 22 2026 00:03:30 GMT+0000 (Coordinated Universal Time)

1 36828U 10036A 26171.91761853 -.00000070 00000+0 00000+0 0 9990 2 36828 54.3041 162.9249 0059141 225.3137 318.8441 1.00270895 58130
UTC large
Height (km)
Speed (km/s)
/
Latitude / Longitude
Inclination (degrees)
Orbital Period (minutes)
Azimuth
Elevation
Range (km)
Doppler Factor

Next 0 passes for location: London (51.5072 / 0.1276)

No passes found over London.
BEIDOU-2 IGSO-1 (C06)